Time,TemperatureF,DewpointF,PressureIn,WindDirection,WindDirectionDegrees,WindSpeedMPH,WindSpeedGustMPH,Humidity,HourlyPrecipIn,Conditions,Clouds,dailyrainin,SolarRadiationWatts/m^2,SoftwareType,DateUTC
2013-01-25 00:01:00,12.6,-99.9,29.93,SW,230,6.0,7.1,78,0.00,,,0.00,0,,2013-01-25 06:01:00,
2013-01-25 00:11:00,13.3,-99.9,29.94,WSW,248,6.0,7.1,79,0.00,,,0.00,0,,2013-01-25 06:11:00,
2013-01-25 00:21:00,14.0,-99.9,29.93,SW,235,7.0,8.8,80,0.00,,,0.00,0,,2013-01-25 06:21:00,
2013-01-25 00:31:00,14.5,-99.9,29.92,SW,216,7.0,8.8,80,0.00,,,0.00,0,,2013-01-25 06:31:00,
2013-01-25 00:41:00,15.0,-99.9,29.92,SW,218,6.0,8.8,81,0.00,,,0.00,0,,2013-01-25 06:41:00,
2013-01-25 00:51:00,15.0,-99.9,29.91,WSW,257,5.0,7.1,80,0.00,,,0.00,0,,2013-01-25 06:51:00,
2013-01-25 01:01:00,14.6,-99.9,29.91,WSW,245,6.0,7.1,81,0.00,,,0.00,0,,2013-01-25 07:01:00,
2013-01-25 01:11:00,15.1,-99.9,29.91,WSW,243,7.0,10.5,81,0.00,,,0.00,0,,2013-01-25 07:11:00,
2013-01-25 01:21:00,16.5,-99.9,29.92,WSW,254,9.0,13.8,80,0.00,,,0.00,0,,2013-01-25 07:21:00,
2013-01-25 01:31:00,17.1,-99.9,29.92,West,267,12.0,18.9,79,0.00,,,0.00,0,,2013-01-25 07:31:00,
2013-01-25 01:41:00,16.6,-99.9,29.92,WNW,282,8.0,13.8,74,0.00,,,0.00,0,,2013-01-25 07:41:00,
2013-01-25 01:51:00,16.2,-99.9,29.93,WNW,286,9.0,15.5,71,0.00,,,0.00,0,,2013-01-25 07:51:00,
2013-01-25 02:01:00,15.9,-99.9,29.93,NNW,329,10.0,15.5,71,0.00,,,0.00,0,,2013-01-25 08:01:00,
2013-01-25 02:11:00,15.5,-99.9,29.93,WNW,287,17.0,27.2,68,0.00,,,0.00,0,,2013-01-25 08:11:00,
2013-01-25 02:21:00,14.6,-99.9,29.93,West,280,18.0,25.6,68,0.00,,,0.00,0,,2013-01-25 08:21:00,
2013-01-25 02:31:00,13.7,-99.9,29.93,WNW,303,14.0,27.2,69,0.00,,,0.00,0,,2013-01-25 08:31:00,
2013-01-25 02:41:00,13.2,-99.9,29.93,WNW,288,17.0,30.6,66,0.00,,,0.00,0,,2013-01-25 08:41:00,
2013-01-25 02:51:00,12.0,-99.9,29.94,WNW,295,17.0,23.9,67,0.00,,,0.00,0,,2013-01-25 08:51:00,
2013-01-25 03:01:00,11.4,-99.9,29.95,NW,320,16.0,28.9,66,0.00,,,0.00,0,,2013-01-25 09:01:00,
2013-01-25 03:11:00,10.6,-99.9,29.95,West,275,13.0,22.2,67,0.00,,,0.00,0,,2013-01-25 09:11:00,
2013-01-25 03:21:00,10.1,-99.9,29.94,West,277,14.0,20.5,69,0.00,,,0.00,0,,2013-01-25 09:21:00,
2013-01-25 03:31:00,9.2,-99.9,29.95,WNW,282,18.0,28.9,66,0.00,,,0.00,0,,2013-01-25 09:31:00,
2013-01-25 03:41:00,9.0,-99.9,29.95,WNW,291,16.0,25.6,65,0.00,,,0.00,0,,2013-01-25 09:41:00,
2013-01-25 03:51:00,8.6,-99.9,29.95,West,280,20.0,32.3,64,0.00,,,0.00,0,,2013-01-25 09:51:00,
2013-01-25 04:01:00,8.0,-99.9,29.96,West,274,15.0,27.2,65,0.00,,,0.00,0,,2013-01-25 10:01:00,
2013-01-25 04:11:00,7.2,-99.9,29.96,WNW,284,17.0,23.9,66,0.00,,,0.00,0,,2013-01-25 10:11:00,
2013-01-25 04:21:00,6.5,-99.9,29.96,WSW,241,13.0,20.5,68,0.00,,,0.00,0,,2013-01-25 10:21:00,
2013-01-25 04:31:00,6.1,-99.9,29.96,WNW,299,15.0,22.2,69,0.00,,,0.00,0,,2013-01-25 10:31:00,
2013-01-25 04:41:00,5.6,-99.9,29.97,WNW,294,14.0,25.6,70,0.00,,,0.00,0,,2013-01-25 10:41:00,
2013-01-25 04:51:00,4.9,-99.9,29.97,WNW,286,17.0,23.9,70,0.00,,,0.00,0,,2013-01-25 10:51:00,
2013-01-25 05:01:00,4.4,-99.9,29.98,WNW,295,13.0,22.2,71,0.00,,,0.00,0,,2013-01-25 11:01:00,
2013-01-25 05:11:00,4.0,-99.9,29.99,NW,310,12.0,22.2,72,0.00,,,0.00,0,,2013-01-25 11:11:00,
2013-01-25 05:21:00,3.6,-99.9,29.99,WNW,288,7.0,13.8,74,0.00,,,0.00,0,,2013-01-25 11:21:00,
2013-01-25 05:31:00,3.3,-99.9,29.99,North,6,10.0,17.2,74,0.00,,,0.00,0,,2013-01-25 11:31:00,
2013-01-25 05:41:00,3.0,-99.9,30.00,West,275,10.0,15.5,74,0.00,,,0.00,0,,2013-01-25 11:41:00,
2013-01-25 05:51:00,2.7,-99.9,30.00,NW,304,11.0,17.2,74,0.00,,,0.00,0,,2013-01-25 11:51:00,
2013-01-25 06:01:00,2.2,-99.9,30.00,NNW,329,10.0,17.2,73,0.00,,,0.00,0,,2013-01-25 12:01:00,
2013-01-25 06:11:00,1.8,-99.9,30.01,West,276,12.0,22.2,73,0.00,,,0.00,0,,2013-01-25 12:11:00,
2013-01-25 06:21:00,1.5,-99.9,30.02,NW,323,11.0,18.9,73,0.00,,,0.00,0,,2013-01-25 12:21:00,
2013-01-25 06:31:00,1.2,-99.9,30.02,WNW,295,13.0,20.5,73,0.00,,,0.00,0,,2013-01-25 12:31:00,
2013-01-25 06:41:00,0.9,-99.9,30.03,NW,316,9.0,13.8,72,0.00,,,0.00,0,,2013-01-25 12:41:00,
2013-01-25 06:51:00,0.5,-99.9,30.03,NW,319,13.0,22.2,72,0.00,,,0.00,0,,2013-01-25 12:51:00,
2013-01-25 07:01:00,0.3,-99.9,30.04,NW,304,9.0,13.8,72,0.00,,,0.00,0,,2013-01-25 13:01:00,
2013-01-25 07:11:00,-0.1,-99.9,30.05,NNW,330,12.0,17.2,72,0.00,,,0.00,0,,2013-01-25 13:11:00,
2013-01-25 07:21:00,-0.4,-99.9,30.05,NNW,339,9.0,15.5,72,0.00,,,0.00,0,,2013-01-25 13:21:00,
2013-01-25 07:31:00,-0.8,-99.9,30.06,WNW,283,8.0,12.1,72,0.00,,,0.00,0,,2013-01-25 13:31:00,
2013-01-25 07:41:00,-1.1,-99.9,30.06,NW,316,9.0,15.5,72,0.00,,,0.00,0.204,,2013-01-25 13:41:00,
2013-01-25 07:51:00,-1.5,-99.9,30.07,NW,326,9.0,12.1,72,0.00,,,0.00,1.144,,2013-01-25 13:51:00,
2013-01-25 08:01:00,-1.7,-99.9,30.08,NNW,338,8.0,17.2,72,0.00,,,0.00,3.72,,2013-01-25 14:01:00,
2013-01-25 08:11:00,-2.1,-99.9,30.09,NW,321,6.0,8.8,71,0.00,,,0.00,7.589,,2013-01-25 14:11:00,
2013-01-25 08:21:00,-2.3,-99.9,30.10,NNW,341,8.0,13.8,71,0.00,,,0.00,14,,2013-01-25 14:21:00,
2013-01-25 08:31:00,-2.5,-99.9,30.10,NW,307,7.0,12.1,71,0.00,,,0.00,19.87,,2013-01-25 14:31:00,
2013-01-25 08:41:00,-2.7,-99.9,30.11,West,272,7.0,13.8,72,0.00,,,0.00,25.34,,2013-01-25 14:41:00,
2013-01-25 08:51:00,-2.8,-99.9,30.12,NW,313,8.0,13.8,71,0.00,,,0.00,70.17,,2013-01-25 14:51:00,
2013-01-25 09:01:00,-2.6,-99.9,30.12,NNE,14,7.0,10.5,71,0.00,,,0.00,78.7,,2013-01-25 15:01:00,
2013-01-25 09:11:00,-2.6,-99.9,30.12,WNW,285,6.0,10.5,70,0.00,,,0.00,159.5,,2013-01-25 15:11:00,
2013-01-25 09:21:00,-2.4,-99.9,30.13,NW,315,8.0,15.5,69,0.00,,,0.00,183.5,,2013-01-25 15:21:00,
2013-01-25 09:31:00,-2.3,-99.9,30.14,NW,321,8.0,12.1,68,0.00,,,0.00,205.2,,2013-01-25 15:31:00,
2013-01-25 09:41:00,-2.3,-99.9,30.15,NW,322,8.0,13.8,68,0.00,,,0.00,230.5,,2013-01-25 15:41:00,
2013-01-25 09:51:00,-2.3,-99.9,30.15,NW,318,9.0,15.5,68,0.00,,,0.00,248.7,,2013-01-25 15:51:00,
2013-01-25 10:01:00,-2.6,-99.9,30.16,NNE,15,9.0,13.8,68,0.00,,,0.00,260.4,,2013-01-25 16:01:00,
2013-01-25 10:11:00,-2.9,-99.9,30.16,West,279,9.0,17.2,67,0.00,,,0.00,295.6,,2013-01-25 16:11:00,
2013-01-25 10:21:00,-2.2,-99.9,30.16,NW,325,8.0,10.5,67,0.00,,,0.00,313.9,,2013-01-25 16:21:00,
2013-01-25 10:31:00,-1.7,-99.9,30.17,NNE,13,4.0,8.8,66,0.00,,,0.00,323.9,,2013-01-25 16:31:00,
2013-01-25 10:41:00,-2.4,-99.9,30.19,NNW,331,9.0,17.2,67,0.00,,,0.00,332.5,,2013-01-25 16:41:00,
2013-01-25 10:51:00,-2.2,-99.9,30.19,NW,319,6.0,10.5,67,0.00,,,0.00,365.2,,2013-01-25 16:51:00,
2013-01-25 11:01:00,-2.5,-99.9,30.20,WNW,301,8.0,12.1,67,0.00,,,0.00,372.2,,2013-01-25 17:01:00,
2013-01-25 11:11:00,-2.1,-99.9,30.20,NW,321,9.0,13.8,66,0.00,,,0.00,384,,2013-01-25 17:11:00,
2013-01-25 11:21:00,-1.7,-99.9,30.20,NW,314,13.0,18.9,65,0.00,,,0.00,385.8,,2013-01-25 17:21:00,
2013-01-25 11:31:00,-1.4,-99.9,30.20,NW,324,7.0,12.1,66,0.00,,,0.00,401.5,,2013-01-25 17:31:00,
2013-01-25 11:41:00,-0.8,-99.9,30.20,North,350,8.0,12.1,64,0.00,,,0.00,404.7,,2013-01-25 17:41:00,
2013-01-25 11:51:00,-1.3,-99.9,30.20,WNW,290,10.0,17.2,65,0.00,,,0.00,412.1,,2013-01-25 17:51:00,
2013-01-25 12:01:00,-0.7,-99.9,30.20,NW,304,10.0,18.9,66,0.00,,,0.00,418.6,,2013-01-25 18:01:00,
2013-01-25 12:11:00,-1.0,-99.9,30.20,WNW,290,9.0,17.2,67,0.00,,,0.00,421.8,,2013-01-25 18:11:00,
2013-01-25 12:21:00,-0.7,-99.9,30.21,North,2,9.0,15.5,66,0.00,,,0.00,422.3,,2013-01-25 18:21:00,
2013-01-25 12:31:00,-0.6,-99.9,30.21,North,0,7.0,12.1,67,0.00,,,0.00,421.5,,2013-01-25 18:31:00,
2013-01-25 12:41:00,-0.6,-99.9,30.20,NW,319,8.0,10.5,67,0.00,,,0.00,419.1,,2013-01-25 18:41:00,
2013-01-25 12:51:00,-0.8,-99.9,30.21,NNW,331,8.0,15.5,67,0.00,,,0.00,413.2,,2013-01-25 18:51:00,
2013-01-25 13:01:00,0.0,-99.9,30.20,NNW,339,7.0,12.1,66,0.00,,,0.00,411.3,,2013-01-25 19:01:00,
2013-01-25 13:11:00,-0.1,-99.9,30.20,NW,326,11.0,15.5,65,0.00,,,0.00,405.5,,2013-01-25 19:11:00,
2013-01-25 13:21:00,-0.3,-99.9,30.20,NW,315,10.0,15.5,65,0.00,,,0.00,398.8,,2013-01-25 19:21:00,
2013-01-25 13:31:00,0.0,-99.9,30.21,NW,306,8.0,13.8,66,0.00,,,0.00,388,,2013-01-25 19:31:00,
2013-01-25 13:41:00,0.1,-99.9,30.21,NNW,335,7.0,12.1,66,0.00,,,0.00,377,,2013-01-25 19:41:00,
2013-01-25 13:51:00,0.1,-99.9,30.21,NNW,344,7.0,13.8,66,0.00,,,0.00,367.8,,2013-01-25 19:51:00,
2013-01-25 14:01:00,0.6,-99.9,30.21,NNW,334,8.0,12.1,65,0.00,,,0.00,355.2,,2013-01-25 20:01:00,
2013-01-25 14:11:00,0.9,-99.9,30.21,NW,322,9.0,13.8,65,0.00,,,0.00,339.4,,2013-01-25 20:11:00,
2013-01-25 14:21:00,0.1,-99.9,30.21,NNW,335,8.0,13.8,65,0.00,,,0.00,305.9,,2013-01-25 20:21:00,
2013-01-25 14:31:00,0.6,-99.9,30.21,NNW,346,8.0,12.1,65,0.00,,,0.00,133,,2013-01-25 20:31:00,
2013-01-25 14:41:00,0.7,-99.9,30.21,NE,42,4.0,8.8,66,0.00,,,0.00,202.3,,2013-01-25 20:41:00,
2013-01-25 14:51:00,0.8,-99.9,30.21,NW,306,4.0,8.8,66,0.00,,,0.00,250.1,,2013-01-25 20:51:00,
2013-01-25 15:01:00,0.7,-99.9,30.21,WNW,297,6.0,10.5,64,0.00,,,0.00,251.6,,2013-01-25 21:01:00,
2013-01-25 15:11:00,0.7,-99.9,30.22,NNW,339,6.0,10.5,64,0.00,,,0.00,227.1,,2013-01-25 21:11:00,
2013-01-25 15:21:00,1.1,-99.9,30.22,West,261,7.0,13.8,65,0.00,,,0.00,214.7,,2013-01-25 21:21:00,
2013-01-25 15:31:00,0.9,-99.9,30.21,North,0,7.0,10.5,65,0.00,,,0.00,186.4,,2013-01-25 21:31:00,
2013-01-25 15:41:00,0.8,-99.9,30.21,NW,313,5.0,8.8,66,0.00,,,0.00,174.8,,2013-01-25 21:41:00,
2013-01-25 15:51:00,0.1,-99.9,30.21,NNW,330,6.0,8.8,65,0.00,,,0.00,150.4,,2013-01-25 21:51:00,
2013-01-25 16:01:00,0.2,-99.9,30.21,North,351,5.0,7.1,66,0.00,,,0.00,126.9,,2013-01-25 22:01:00,
2013-01-25 16:11:00,0.3,-99.9,30.22,NW,324,6.0,12.1,65,0.00,,,0.00,89.5,,2013-01-25 22:11:00,
2013-01-25 16:21:00,0.2,-99.9,30.21,NW,317,5.0,7.1,66,0.00,,,0.00,69.53,,2013-01-25 22:21:00,
2013-01-25 16:31:00,0.2,-99.9,30.21,NW,322,3.0,5.4,65,0.00,,,0.00,50.21,,2013-01-25 22:31:00,
2013-01-25 16:41:00,-0.5,-99.9,30.21,NNW,330,5.0,8.8,66,0.00,,,0.00,30.91,,2013-01-25 22:41:00,
2013-01-25 16:51:00,-0.7,-99.9,30.22,North,351,4.0,7.1,67,0.00,,,0.00,18.9,,2013-01-25 22:51:00,
2013-01-25 17:01:00,-0.7,-99.9,30.23,North,0,2.0,3.8,68,0.00,,,0.00,15.67,,2013-01-25 23:01:00,
2013-01-25 17:11:00,-1.2,-99.9,30.23,NW,325,3.0,5.4,68,0.00,,,0.00,10.93,,2013-01-25 23:11:00,
2013-01-25 17:21:00,-1.6,-99.9,30.24,NW,317,4.0,7.1,69,0.00,,,0.00,6.692,,2013-01-25 23:21:00,
2013-01-25 17:31:00,-2.2,-99.9,30.24,North,349,4.0,5.4,69,0.00,,,0.00,2.756,,2013-01-25 23:31:00,
2013-01-25 17:41:00,-2.5,-99.9,30.24,North,6,3.0,5.4,70,0.00,,,0.00,1.028,,2013-01-25 23:41:00,
2013-01-25 17:51:00,-2.9,-99.9,30.24,North,351,2.0,3.8,70,0.00,,,0.00,0.204,,2013-01-25 23:51:00,
2013-01-25 18:01:00,-3.1,-99.9,30.25,NNW,332,3.0,5.4,71,0.00,,,0.00,0,,2013-01-26 00:01:00,
2013-01-25 18:11:00,-3.4,-99.9,30.24,NNE,16,2.0,3.8,72,0.00,,,0.00,0,,2013-01-26 00:11:00,
2013-01-25 18:21:00,-3.6,-99.9,30.25,North,351,2.0,3.8,72,0.00,,,0.00,0,,2013-01-26 00:21:00,
2013-01-25 18:31:00,-3.8,-99.9,30.25,NNE,25,1.0,2.1,72,0.00,,,0.00,0,,2013-01-26 00:31:00,
2013-01-25 18:41:00,-4.1,-99.9,30.25,North,0,0.0,2.1,74,0.00,,,0.00,0,,2013-01-26 00:41:00,
2013-01-25 18:51:00,-4.3,-99.9,30.25,NE,42,0.0,2.1,74,0.00,,,0.00,0,,2013-01-26 00:51:00,
2013-01-25 19:01:00,-4.5,-99.9,30.24,NNE,23,0.0,0.0,74,0.00,,,0.00,0,,2013-01-26 01:01:00,
2013-01-25 19:11:00,-4.8,-99.9,30.24,North,2,0.0,0.0,75,0.00,,,0.00,0,,2013-01-26 01:11:00,
2013-01-25 19:21:00,-4.5,-99.9,30.25,SW,231,2.0,3.8,75,0.00,,,0.00,0,,2013-01-26 01:21:00,
2013-01-25 19:31:00,-5.4,-99.9,30.25,SSW,210,0.0,0.0,77,0.00,,,0.00,0,,2013-01-26 01:31:00,
2013-01-25 19:41:00,-5.5,-99.9,30.25,South,169,0.0,0.0,77,0.00,,,0.00,0,,2013-01-26 01:41:00,
2013-01-25 19:51:00,-5.9,-99.9,30.24,SSW,198,0.0,0.0,78,0.00,,,0.00,0,,2013-01-26 01:51:00,
2013-01-25 20:01:00,-6.4,-99.9,30.23,SSE,167,0.0,0.0,78,0.00,,,0.00,0,,2013-01-26 02:01:00,
2013-01-25 20:11:00,-6.6,-99.9,30.24,WSW,242,2.0,3.8,78,0.00,,,0.00,0,,2013-01-26 02:11:00,
2013-01-25 20:21:00,-6.6,-99.9,30.25,SW,232,0.0,2.1,78,0.00,,,0.00,0,,2013-01-26 02:21:00,
2013-01-25 20:31:00,-6.9,-99.9,30.24,SSE,157,0.0,0.0,79,0.00,,,0.00,0,,2013-01-26 02:31:00,
2013-01-25 20:41:00,-7.5,-99.9,30.23,SSW,203,0.0,0.0,80,0.00,,,0.00,0,,2013-01-26 02:41:00,
2013-01-25 20:51:00,-7.2,-99.9,30.24,South,173,0.0,0.0,80,0.00,,,0.00,0,,2013-01-26 02:51:00,
2013-01-25 21:01:00,-7.4,-99.9,30.24,SSW,202,0.0,0.0,80,0.00,,,0.00,0,,2013-01-26 03:01:00,
2013-01-25 21:11:00,-7.6,-99.9,30.24,South,187,0.0,0.0,81,0.00,,,0.00,0,,2013-01-26 03:11:00,
2013-01-25 21:21:00,-7.6,-99.9,30.24,WSW,250,2.0,2.1,80,0.00,,,0.00,0,,2013-01-26 03:21:00,
2013-01-25 21:31:00,-7.5,-99.9,30.23,SW,230,0.0,0.0,80,0.00,,,0.00,0,,2013-01-26 03:31:00,
2013-01-25 21:41:00,-7.6,-99.9,30.24,SW,231,2.0,2.1,80,0.00,,,0.00,0,,2013-01-26 03:41:00,
2013-01-25 21:51:00,-7.5,-99.9,30.24,West,267,0.0,0.0,80,0.00,,,0.00,0.003,,2013-01-26 03:51:00,
2013-01-25 22:01:00,-7.5,-99.9,30.25,SW,230,0.0,0.0,79,0.00,,,0.00,0,,2013-01-26 04:01:00,
2013-01-25 22:11:00,-7.4,-99.9,30.25,SW,227,2.0,2.1,80,0.00,,,0.00,0,,2013-01-26 04:11:00,
2013-01-25 22:21:00,-7.2,-99.9,30.25,WSW,242,0.0,0.0,80,0.00,,,0.00,0,,2013-01-26 04:21:00,
2013-01-25 22:31:00,-7.1,-99.9,30.26,WSW,256,0.0,0.0,79,0.00,,,0.00,0,,2013-01-26 04:31:00,
2013-01-25 22:41:00,-6.9,-99.9,30.25,WSW,241,0.0,0.0,79,0.00,,,0.00,0,,2013-01-26 04:41:00,
2013-01-25 22:51:00,-6.6,-99.9,30.26,WSW,240,0.0,0.0,79,0.00,,,0.00,0,,2013-01-26 04:51:00,
2013-01-25 23:01:00,-6.8,-99.9,30.26,SSW,213,0.0,0.0,79,0.00,,,0.00,0,,2013-01-26 05:01:00,
2013-01-25 23:11:00,-6.9,-99.9,30.26,SSW,210,0.0,0.0,79,0.00,,,0.00,0,,2013-01-26 05:11:00,
2013-01-25 23:21:00,-6.8,-99.9,30.25,East,93,0.0,0.0,80,0.00,,,0.00,0,,2013-01-26 05:21:00,
2013-01-25 23:31:00,-6.1,-99.9,30.25,SW,228,1.0,2.1,80,0.00,,,0.00,0,,2013-01-26 05:31:00,
2013-01-25 23:41:00,-5.8,-99.9,30.25,SW,233,0.0,0.0,79,0.00,,,0.00,0,,2013-01-26 05:41:00,
2013-01-25 23:51:00,-5.1,-99.9,30.25,NW,323,0.0,0.0,79,0.00,,,0.00,0,,2013-01-26 05:51:00,